Regional Weather Roundup
Issued by NWS

Home | Current Version | Previous Version | Text Only | Print | Product List | Glossary Off
Versions: 1 2 3 4 5 6 7 8 9 10 11 12 13 14 15 16 17 18 19 20 21 22 23 24 25 26 27

000
ASUS45 KBOU 262107
RWRCO

WEATHER ROUNDUP FOR COLORADO
NATIONAL WEATHER SERVICE DENVER/BOULDER CO
300 PM MDT MON JUN 26 2017

NOTE: "FAIR" INDICATES FEW OR NO CLOUDS BELOW 12000 FEET WITH NO
SIGNIFICANT WEATHER AND/OR OBSTRUCTIONS TO VISIBILITY.

COZ001>005-013-030-031-262200-
...NORTHWEST COLORADO...

CITY           SKY/WX    TMP DP  RH WIND       PRES   REMARKS
CRAIG          FAIR      88  22   9 NE6       30.20F
HAYDEN         FAIR      82  25  12 E3        30.23F
MEEKER         FAIR      88  18   7 VRB6      30.19F
RABBIT EARS PA FAIR      64  27  24 W6        30.55F
STEAMBOAT SPGS FAIR      81  30  15 W5        30.26S
WALDEN         FAIR      75  27  16 W8        30.36F
$$

COZ006>008-011-262200-
...WEST CENTRAL VALLEYS...

CITY           SKY/WX    TMP DP  RH WIND       PRES   REMARKS
GRAND JUNCTION FAIR      95  26   8 VRB5      30.06F
MONTROSE       FAIR      90  28  11 VRB5      30.14F
EAGLE          SUNNY     84  28  13 MISG      30.22F
RIFLE          FAIR      93  17   6 VRB6G16   30.11F
DELTA          FAIR      98  27   8 SW8       30.09F
NUCLA          FAIR      93  21   7 W8G16     30.19F
$$

COZ017>023-064>068-262200-
...SOUTHWEST COLORADO...

CITY           SKY/WX    TMP DP  RH WIND       PRES   REMARKS
DURANGO        FAIR      80  26  13 NE15      30.25F
CORTEZ         FAIR      93  29  10 S8        30.17F
PAGOSA SPRINGS FAIR      78  30  17 W3        30.33F
TELLURIDE      FAIR      78  18  10 NW7G22    30.45S
WOLF CREEK PAS LGT RAIN  54  32  43 S8        30.70R
$$

COZ009-010-012-014-032>034-037-058>063-262200-
...CENTRAL COLORADO...

CITY           SKY/WX    TMP DP  RH WIND       PRES   REMARKS
ASPEN          FAIR      82  22  11 N8G18     30.30F
BUENA VISTA    FAIR      81  19  10 CALM      30.28F
COPPER MTN     FAIR      64   3   9 NW18G28   30.66F
BERTHOUD PASS  FAIR      54  41  62 W24G33    30.69F
COTTONWOOD PAS FAIR      81  10   7 NE5       30.45F
GUNNISON       FAIR      79  32  18 N8        30.29F
KREMMLING      NOT AVBL
LEADVILLE      FAIR      72   5   7 NW12G22   30.46F
SALIDA         FAIR      76  36  23 SW14G21   30.35S
SUNLIGHT       FAIR      64  25  22 W6G16     30.59F
WILKERSON PASS PTSUNNY   63  23  22 SE5       30.61F
$$

COZ069>075-262200-
...SAN LUIS VALLEY/SANGRE DE CRISTO MOUNTAINS...

CITY           SKY/WX    TMP DP  RH WIND       PRES   REMARKS
ALAMOSA        FAIR      79  35  20 N10       30.29F
DEL NORTE      FAIR      78  40  25 E10       30.31F
LA VETA PASS   FAIR      61  50  67 N12       30.63F THUNDER
SAGUACHE       FAIR      81  39  22 S12G17    30.31S
$$

COZ035-036-038>040-262200-
...NORTHERN COLORADO FRONT RANGE...

CITY           SKY/WX    TMP DP  RH WIND       PRES   REMARKS
DENVER INTL AP FAIR      87  39  18 NE13G21   30.17F
DMNS CITY PARK   N/A     85  38  18 E3G16     30.15F
AURORA         MOSUNNY   85  38  19 N6        30.18F
FRONT RANGE AP FAIR      86  36  16 NE3       30.18F
ERIE MUNI ARPT FAIR      85  39  19 N3        30.16F
BOULDER MUN AP FAIR      82  36  18 NE5       30.17F
CENTENNIAL     FAIR      85  33  15 VRB3      30.19F
BROOMFIELD     FAIR      82  43  24 N7        30.19F
FORT COLLINS   FAIR      87  48  25 S9G21     30.16F
LONGMONT       FAIR      89  44  21 E7        30.17F
$$

COZ041-046-047-076>085-087-088-262200-
...PIKES PEAK/PALMER DIVIDE AND SOUTHERN FOOTHILLS...

CITY           SKY/WX    TMP DP  RH WIND       PRES   REMARKS
COLO. SPRINGS  FAIR      82  43  25 E8        30.23F
A. F. ACADEMY  FAIR      81  43  26 E6        30.23F
SCHRIEVER AFB  FAIR      82  37  20 CALM      30.23F
CHEYENNE MTN   FAIR      76  44  31 SE6       30.23F
ELLICOTT       FAIR     N/A N/A N/A VRB5      30.21F
FALCON           N/A     83  31  15 NE6       30.29F
FORT CARSON    FAIR      83  45  26 S6        30.20F
LIMON          FAIR      87  34  15 VRB3      30.17F
MONUMENT HILL  FAIR      79  34  19 E7G17     30.30F
CANON CITY     SUNNY     90  52  27 E15G23    30.15F
WALSENBURG     FAIR      81  50  34 SE8       30.22F
TRINIDAD       FAIR      83  52  34 SE10      30.20F
$$

COZ042>045-048>051-090-091-262200-
...NORTHEAST COLORADO...

CITY           SKY/WX    TMP DP  RH WIND       PRES   REMARKS
GREELEY ARPT   FAIR      86  44  23 VRB6      30.14F
AKRON          PTSUNNY   83  51  33 E9        30.15F
BURLINGTON     FAIR      85  54  34 SE14G21   30.14F
WRAY           FAIR      86  52  30 E6        30.13F
YUMA           NOT AVBL
STERLING       FAIR      86  50  28 NW7       30.11F
HOLYOKE        NOT AVBL
FORT MORGAN    FAIR      87  44  22 E8        30.14F
$$

COZ086-089-092>099-262200-
...SOUTHEAST COLORADO...

CITY           SKY/WX    TMP DP  RH WIND       PRES   REMARKS
PUEBLO         FAIR      88  51  28 SE6       30.11F
LA JUNTA       FAIR      88  56  33 VRB6G18   30.11F
LAMAR          FAIR      89  56  32 VRB3      30.08F
SPRINGFIELD      N/A     83  54  36 SE12      30.13F
$$




USA.gov is the U.S. government's official web portal to all federal, state and local government web resources and services.